Weather History for Szolnok, Hungary

Change the Weather History Date:

Sunday, March 17, 2013

  Actual Average (LHBP) Record (LHBP)
Temperature  
Mean Temperature 22 °F -  
Max Temperature 33 °F 49 °F 69 °F (2012)
Min Temperature 10 °F 30 °F 15 °F (2013)
Degree Days  
Heating Degree Days 44    
Moisture  
Dew Point 15 °F    
Average Humidity 75    
Maximum Humidity 93    
Minimum Humidity 44    
Precipitation  
Precipitation 0.00 in - - ()
Sea Level Pressure  
Sea Level Pressure 30.13 in    
Wind  
Wind Speed 4 mph ()    
Max Wind Speed 11 mph    
Max Gust Speed -    
Visibility 2.3 miles    
Events Fog    
Averages and records for this station are not official NWS values.
T = Trace of Precipitation, MM = Missing Value Source: Averaged Metar Reports

Daily Weather History Graph

Daily Weather History Graph

Search for Another Location

Airport:

Trip Planner

Search our weather history database for the weather conditions in past years. The results will help you decide how hot, cold, wet, or windy it might be!

Date:

Astronomy

Mar. 17, 2013 Rise Set
Actual Time 5:48 AM CET 5:47 PM CET
Civil Twilight 5:17 AM CET 6:17 PM CET
Nautical Twilight 4:42 AM CET 6:53 PM CET
Astronomical Twilight 4:05 AM CET 7:30 PM CET
Moon 8:26 AM CET (3/17) 11:54 PM CET (3/17)
Length of Visible Light 13h 00m
Length of Day
11h 59m
Waxing Crescent, 29% of the Moon is Illuminated
Mar 17
Waxing Crescent
Mar 19
First Quarter
Mar 27
Full
Apr 3
Last Quarter
Apr 10
New

Hourly Weather History & Observations

Time (CET) Temp. Windchill Dew Point Humidity Pressure Visibility Wind Dir Wind Speed Gust Speed Precip Events Conditions
12:15 AM 15.8 °F - 14.0 °F 93% 30.18 in 3.1 mi Calm Calm - N/A   Clear
12:45 AM 14.0 °F - 12.2 °F 93% 30.18 in 1.9 mi Calm Calm - N/A   Clear
1:15 AM 14.0 °F - 12.2 °F 93% 30.15 in 0.9 mi East 2.2 mph - N/A   Clear
1:39 AM 12.2 °F - 8.6 °F 85% 30.15 in 0.5 mi East 2.2 mph - N/A Fog Light Freezing Fog
1:45 AM 12.2 °F - 8.6 °F 85% 30.15 in 0.4 mi East 2.2 mph - N/A Fog Light Freezing Fog
2:15 AM 12.2 °F - 10.4 °F 92% 30.15 in 0.4 mi East 2.2 mph - N/A Fog Light Freezing Fog
2:45 AM 12.2 °F - 10.4 °F 92% 30.15 in 0.5 mi East 2.2 mph - N/A Fog Light Freezing Fog
3:15 AM 14.0 °F - 10.4 °F 86% 30.15 in 0.5 mi Calm Calm - N/A Fog Light Freezing Fog
3:45 AM 12.2 °F - 8.6 °F 85% 30.15 in 0.2 mi East 2.2 mph - N/A Fog Light Freezing Fog
4:15 AM 10.4 °F - 6.8 °F 85% 30.15 in 0.2 mi ESE 2.2 mph - N/A Fog Light Freezing Fog
4:45 AM 12.2 °F - 8.6 °F 85% 30.15 in 0.2 mi ESE 2.2 mph - N/A Fog Light Freezing Fog
5:09 AM 12.2 °F - 8.6 °F 85% 30.15 in 0.9 mi Calm Calm - N/A   Clear
5:15 AM 12.2 °F - 8.6 °F 85% 30.15 in 0.9 mi Calm Calm - N/A   Clear
5:36 AM 10.4 °F - 6.8 °F 85% 30.15 in 0.2 mi East 2.2 mph - N/A Fog Light Freezing Fog
5:45 AM - - - N/A% - 1.9 mi Variable 4.5 mph - N/A Fog Light Freezing Fog
6:15 AM 10.4 °F - 6.8 °F 85% 30.15 in 0.1 mi ENE 2.2 mph - N/A Fog Light Freezing Fog
6:45 AM 12.2 °F - 8.6 °F 85% 30.18 in 0.7 mi East 2.2 mph - N/A   Clear
7:15 AM 14.0 °F - 10.4 °F 86% 30.18 in 1.2 mi East 2.2 mph - N/A   Clear
7:23 AM 14.0 °F 6.6 °F 12.2 °F 93% 30.18 in 1.9 mi East 4.5 mph - N/A   Partly Cloudy
7:45 AM 17.6 °F - 14.0 °F 86% 30.18 in 3.1 mi East 2.2 mph - N/A   Partly Cloudy
8:15 AM 19.4 °F - 15.8 °F 86% 30.18 in 3.1 mi East 2.2 mph - N/A   Partly Cloudy
8:45 AM - - - N/A% - 6.2 mi ESE 8.9 mph - N/A   Clear
9:15 AM 23.0 °F - 19.4 °F 86% 30.18 in 5.0 mi East 2.2 mph - N/A   Unknown
9:45 AM 24.8 °F 19.2 °F 19.4 °F 80% 30.18 in - East 4.5 mph - N/A   Clear
10:15 AM 26.6 °F 21.3 °F 19.4 °F 74% 30.18 in - East 4.5 mph - N/A   Clear
10:45 AM 28.4 °F 23.4 °F 19.4 °F 69% 30.18 in - East 4.5 mph - N/A   Clear
11:15 AM 28.4 °F 23.4 °F 21.2 °F 74% 30.18 in - East 4.5 mph - N/A   Clear
11:45 AM - - - N/A% - 6.2 mi East 8.9 mph - N/A   Clear
12:15 PM 32.0 °F 25.7 °F 21.2 °F 64% 30.15 in - East 6.7 mph - N/A   Clear
12:45 PM 32.0 °F 25.7 °F 19.4 °F 60% 30.15 in - East 6.7 mph - N/A   Clear
1:15 PM 33.8 °F 26.5 °F 15.8 °F 48% 30.15 in 6.2 mi SSE 8.9 mph - N/A   Scattered Clouds
1:45 PM 33.8 °F 27.9 °F 14.0 °F 44% 30.12 in 6.2 mi SE 6.7 mph - N/A   Scattered Clouds
2:15 PM 33.8 °F 27.9 °F 14.0 °F 44% 30.12 in 6.2 mi SE 6.7 mph - N/A   Scattered Clouds
2:45 PM - - - N/A% - 6.2 mi East 8.9 mph - N/A   Clear
3:15 PM 33.8 °F 26.5 °F 15.8 °F 48% 30.12 in - East 8.9 mph - N/A   Clear
4:15 PM 32.0 °F 24.3 °F 15.8 °F 51% 30.09 in - ESE 8.9 mph - N/A   Clear
4:45 PM 32.0 °F 24.3 °F 19.4 °F 60% 30.09 in - East 8.9 mph - N/A   Clear
5:15 PM 30.2 °F 20.9 °F 19.4 °F 64% 30.09 in - East 11.2 mph - N/A   Clear
5:45 PM - - - N/A% - 3.1 mi East 8.9 mph - N/A   Clear
6:15 PM 26.6 °F 17.7 °F 19.4 °F 74% 30.09 in - East 8.9 mph - N/A   Clear
6:45 PM 26.6 °F 19.2 °F 17.6 °F 69% 30.09 in - East 6.7 mph - N/A   Clear
7:15 PM 26.6 °F 21.3 °F 17.6 °F 69% 30.09 in - East 4.5 mph - N/A   Clear
8:15 PM 28.4 °F 21.4 °F 17.6 °F 64% 30.06 in - East 6.7 mph - N/A   Clear
8:45 PM - - - N/A% - 3.1 mi East 8.9 mph - N/A   Clear
9:15 PM 28.4 °F 18.7 °F 19.4 °F 69% 30.06 in - East 11.2 mph - N/A   Clear
9:45 PM 28.4 °F 18.7 °F 17.6 °F 64% 30.06 in - East 11.2 mph - N/A   Clear
10:15 PM 28.4 °F 18.7 °F 19.4 °F 69% 30.04 in - East 11.2 mph - N/A   Clear
10:45 PM 28.4 °F 19.9 °F 19.4 °F 69% 30.04 in - East 8.9 mph - N/A   Clear
11:15 PM 28.4 °F 19.9 °F 21.2 °F 74% 30.04 in - East 8.9 mph - N/A   Clear
11:45 PM - - - N/A% - 1.1 mi North - - N/A   Scattered Clouds